This demonstration page uses our WeatherBlox Daily Observations layout. Learn more.

Left ArrowRight Arrow

44.89941, -97.11507

Hourly Observations for January 11, 2016

Temp ( °F °C ) Dew Point ( °F °C ) Humidity (%) Winds ( mph kmh ) Pressure ( in mb ) Visibility ( mi km ) Precip ( " mm )
12:53 am 00:53 Cloudy 2 -16.7 -4 -20 76 76 Calm 30.00 1016 10 16 0.00 0.00
1:53 am 01:53 Cloudy 2 -16.7 -3 -19.4 80 80 Calm 29.99 1016 10 16 0.00 0.00
2:28 am 02:28 Cloudy 2 -16.7 -2 -18.9 83 83 NW 3 6 30.09 1019 10 16 0.00 0.00
2:53 am 02:53 Cloudy 3 -16.1 -2 -18.9 79 79 Calm 29.98 1015 10 16 0.00 0.00
3:53 am 03:53 Cloudy 3 -16.1 -2 -18.9 79 79 Calm 29.97 1015 10 16 0.00 0.00
4:09 am 04:09 Cloudy 3 -16.1 -1 -18.3 83 83 Calm 30.06 1018 10 16 0.00 0.00
4:38 am 04:38 Cloudy 4 -15.6 -1 -18.3 80 80 SSW 5 7 30.03 1017 10 16 0.00 0.00
4:53 am 04:53 Cloudy 4 -15.6 -1 -18.3 80 80 Calm 29.98 1015 10 16 0.00 0.00
5:53 am 05:53 Cloudy with Light Snow 5 -15 -1 -18.3 76 76 W 5 7 29.98 1015 5 8 0.00 0.03
6:11 am 06:11 Cloudy with Light Snow 5 -15 0 -17.8 79 79 Calm 30.03 1017 7 11 0.00 0.03
6:53 am 06:53 Cloudy 6 -14.4 0 -17.8 76 76 WSW 6 9 29.98 1015 8 13 0.00 0.03
7:53 am 07:53 Cloudy with Light Snow 6 -14.4 0 -17.8 76 76 WSW 6 9 29.95 1014 4 6 0.00 0.03
8:43 am 08:43 Cloudy with Light Snow 6 -14.4 1 -17.2 79 79 WSW 9 15 30.00 1016 4 6 0.00 0.03
8:53 am 08:53 Cloudy with Light Snow 6 -14.4 1 -17.2 79 79 W 9 15 29.96 1014 4 6 0.00 0.03
9:53 am 09:53 Cloudy with Light Snow 7 -13.9 2 -16.7 80 80 W 13 20 29.95 1014 4 6 0.00 0.03
10:53 am 10:53 Partly Cloudy 6 -14.4 1 -17.2 79 79 W 9 15 29.93 1014 10 16 0.00 0.03
11:53 am 11:53 Mostly Cloudy 8 -13.3 2 -16.7 76 76 W 13 20 29.88 1012 10 16 0.00 0.00
12:07 pm 12:07 Mostly Cloudy 9 -12.8 3 -16.1 77 77 W 15 24 29.94 1014 10 16 0.00 0.00
12:36 pm 12:36 Cloudy with Light Snow 10 -12.2 4 -15.6 76 76 W 15 24 29.91 1013 3 4 0.00 0.03
12:48 pm 12:48 Cloudy with Light Snow 10 -12 5 -15 79 79 W 15 24 29.91 1013 3 5 0.00 0.03
12:53 pm 12:53 Cloudy with Light Snow 11 -11.7 5 -15 77 77 W 15 24 29.85 1011 4 6 0.00 0.03
1:43 pm 13:43 Cloudy with Light Snow 14 -10 8 -13.3 77 77 W 13 20 29.85 1011 3 4 0.00 0.03
1:53 pm 13:53 Cloudy with Light Snow 14 -10 8 -13.3 77 77 W 17 28 29.82 1010 2 3 0.00 0.03
2:16 pm 14:16 Cloudy with Light Snow 15 -9.4 9 -12.8 77 77 W 14 22 29.85 1011 2 3 0.00 0.03
2:29 pm 14:29 Cloudy with Light Snow 16 -8.9 10 -12.2 77 77 W 14 22 29.83 1010 4 6 0.00 0.03
2:53 pm 14:53 Cloudy 17 -8.3 11 -11.7 77 77 W 14 22 29.80 1009 7 11 0.00 0.03
3:53 pm 15:53 Cloudy with Light Snow 19 -7.2 14 -10 81 81 W 15 24 29.79 1009 5 8 0.00 0.03
4:24 pm 16:24 Windy with Snow Likely 22 -5.6 16 -8.9 78 78 NW 23 37 29.83 1010 2 3 0.00 0.03
4:32 pm 16:32 Windy with Snow Likely 21 -6.1 16 -8.9 81 81 NNW 29 46 29.83 1010 1 2 0.00 0.03
4:39 pm 16:39 Cloudy with Snow 20 -6.7 14 -10 78 78 NNW 32 52 29.83 1010 1 1 0.00 0.03
4:53 pm 16:53 Windy with Snow Likely 17 -8.3 11 -11.7 77 77 NNW 24 39 29.84 1010 1 2 0.00 0.03
5:17 pm 17:17 Windy with Snow Likely 13 -10.6 6 -14.4 74 74 NNW 30 48 29.88 1012 2 3 0.00 0.03
5:30 pm 17:30 Cloudy with Haze 12 -11.1 4 -15.6 70 70 NNW 26 43 29.91 1013 5 8 0.00 0.03
5:49 pm 17:49 Cloudy with Haze 10 -12 3 -16 72 72 NNW 28 44 29.94 1014 5 8 0.00 0.03
5:53 pm 17:53 Cloudy with Haze 10 -12.2 2 -16.7 69 69 NNW 29 46 29.89 1012 4 6 0.00 0.03
6:30 pm 18:30 Cloudy with Haze 8 -13.3 0 -17.8 69 69 NNW 26 43 29.97 1015 5 8 0.00 0.00
6:36 pm 18:36 Windy with Snow Likely 8 -13.3 1 -17.2 73 73 N 23 37 29.97 1015 2 3 0.00 0.03
6:43 pm 18:43 Windy with Snow Likely 8 -13.3 1 -17.2 73 73 NNW 24 39 29.97 1015 2 3 0.00 0.03
6:53 pm 18:53 Cloudy with Haze 7 -13.9 0 -17.8 73 73 NNW 21 33 29.93 1014 5 8 0.00 0.03
6:58 pm 18:58 Windy with Snow Likely 7 -13.9 0 -17.8 73 73 NNW 22 35 30.00 1016 3 4 0.00 0.03
7:14 pm 19:14 Cloudy with Haze 7 -13.9 0 -17.8 73 73 NNW 20 31 30.00 1016 4 6 0.00 0.03
7:31 pm 19:31 Cloudy with Haze 6 -14.4 -1 -18.3 73 73 NNW 22 35 30.00 1016 3 5 0.00 0.03
7:40 pm 19:40 Cloudy with Haze 5 -15 -1 -18.3 76 76 NNW 23 37 30.03 1017 2 3 0.00 0.03
7:53 pm 19:53 Cloudy with Light Snow 5 -15 -1 -18.3 76 76 NNW 16 26 29.98 1015 2 2 0.00 0.03
7:56 pm 19:56 Windy with Snow Likely 5 -15 -1 -18.3 76 76 NNW 20 31 30.06 1018 1 2 0.00 0.03
8:03 pm 20:03 Mostly Cloudy with Light Snow 4 -15.6 -2 -18.9 76 76 NNW 23 37 30.06 1018 2 3 0.00 0.03
8:11 pm 20:11 Mostly Cloudy with Haze 4 -15.6 -3 -19.4 73 73 NNW 21 33 30.06 1018 4 6 0.00 0.03
8:20 pm 20:20 Mostly Cloudy with Haze 4 -15.6 -2 -18.9 76 76 NNW 23 37 30.06 1018 2 3 0.00 0.03
8:32 pm 20:32 Cloudy with Haze 3 -16.1 -3 -19.4 76 76 NNW 21 33 30.09 1019 3 5 0.00 0.03
8:46 pm 20:46 Cloudy with Haze 3 -16.1 -3 -19.4 76 76 NNW 21 33 30.09 1019 3 4 0.00 0.03
8:53 pm 20:53 Cloudy 3 -16.1 -4 -20 72 72 NNW 22 35 30.00 1016 7 11 0.00 0.03
9:18 pm 21:18 Cloudy with Haze 2 -16.7 -5 -20.6 72 72 NNW 22 35 30.09 1019 4 6 0.00 0.00
9:30 pm 21:30 Cloudy 2 -16.7 -6 -21.1 69 69 NNW 22 35 30.09 1019 10 16 0.00 0.00
9:53 pm 21:53 Cloudy 1 -17.2 -7 -21.7 68 68 NNW 23 37 30.03 1017 10 16 0.00 0.00
10:36 pm 22:36 Partly Cloudy 0 -17.8 -8 -22.2 69 69 NNW 18 30 30.18 1022 10 16 0.00 0.00
10:53 pm 22:53 Mostly Clear -1 -18.3 -9 -22.8 68 68 NNW 20 31 30.07 1018 10 16 0.00 0.00
11:00 pm 23:00 Mostly Cloudy -1 -18.3 -9 -22.8 68 68 NNW 17 28 30.18 1022 10 16 0.00 0.00
11:13 pm 23:13 Mostly Cloudy -1 -18.3 -9 -22.8 68 68 NNW 21 33 30.21 1023 10 16 0.00 0.00
11:32 pm 23:32 Partly Cloudy -2 -18.9 -10 -23.3 68 68 NNW 16 26 30.21 1023 10 16 0.00 0.00
11:42 pm 23:42 Mostly Cloudy -3 -19.4 -10 -23.3 71 71 NNW 10 17 30.21 1023 10 16 0.00 0.00
11:53 pm 23:53 Mostly Cloudy -3 -19.4 -9 -22.8 75 75 NNW 10 17 30.11 1020 9 14 0.00 0.00

Powered by AerisWeather